Northeast Philadelphia, PA

4:30 PM EST on December 08, 2019 (GMT -0500)
Northeast Philadelphia

Weather History for KPNE - November, 2019

Change the Weather History Date:

Monday, November 18, 2019

  Actual Average Record
Temperature  
Mean Temperature 41 °F -  
Max Temperature 45 °F 52 °F 70 °F (2016)
Min Temperature 37 °F 34 °F 25 °F (2014)
Degree Days  
Heating Degree Days 24    
Moisture  
Dew Point 35 °F    
Average Humidity 77    
Maximum Humidity 86    
Minimum Humidity 62    
Precipitation  
Precipitation 0.00 in - - ()
Sea Level Pressure  
Sea Level Pressure 29.83 in    
Wind  
Wind Speed 9 mph ()    
Max Wind Speed 14 mph    
Max Gust Speed -    
Visibility 8.6 miles    
Events      
Averages and records for this station are not official NWS values.
T = Trace of Precipitation, MM = Missing Value Source: Averaged Metar Reports

Daily Weather History Graph

Daily Weather History Graph

Search for Another Location

Airport or City:

Astronomy

Nov. 18, 2019 Rise Set
Actual Time 6:48 AM EST 4:41 PM EST
Civil Twilight 6:19 AM EST 5:10 PM EST
Nautical Twilight 5:46 AM EST 5:43 PM EST
Astronomical Twilight 5:14 AM EST 6:15 PM EST
Moon 10:23 PM EST (11/18) 12:17 PM EST (11/18)
Length of Visible Light 10h 51m
Length of Day
9h 52m
Waning Gibbous, 63% of the Moon is Illuminated
Nov 18
Waning Gibbous
Nov 19
Last Quarter
Nov 26
New
Dec 4
First Quarter
Dec 12
Full

Hourly Weather History & Observations

Time (EST) Temp. Windchill Dew Point Humidity Pressure Visibility Wind Dir Wind Speed Gust Speed Precip Events Conditions
12:54 AM 41.0 °F 33.5 °F 28.9 °F 62% 30.00 in 10.0 mi NNE 13.8 mph - N/A   Overcast
1:54 AM 39.9 °F 32.9 °F 28.9 °F 65% 29.98 in 10.0 mi NNE 11.5 mph - N/A   Overcast
2:54 AM 37.9 °F 30.9 °F 28.9 °F 70% 29.95 in 10.0 mi NNE 10.4 mph - N/A   Partly Cloudy
3:22 AM 39.9 °F 33.9 °F 30.9 °F 70% 29.94 in 10.0 mi NNE 9.2 mph - N/A   Overcast
3:54 AM 39.9 °F 32.9 °F 30.9 °F 70% 29.93 in 10.0 mi NNE 11.5 mph - N/A   Overcast
4:54 AM 39.9 °F 32.5 °F 32.0 °F 73% 29.92 in 10.0 mi NNE 12.7 mph - N/A   Overcast
5:54 AM 39.9 °F 32.5 °F 33.1 °F 77% 29.91 in 10.0 mi NNE 12.7 mph - N/A   Overcast
6:02 AM 39.9 °F 32.5 °F 33.1 °F 77% 29.91 in 10.0 mi NNE 12.7 mph - N/A   Overcast
6:54 AM 41.0 °F 33.9 °F 33.1 °F 73% 29.91 in 10.0 mi NNE 12.7 mph - N/A   Overcast
7:54 AM 39.9 °F 33.4 °F 34.0 °F 79% 29.90 in 8.0 mi North 10.4 mph - N/A   Overcast
8:04 AM 39.9 °F 33.9 °F 35.1 °F 83% 29.90 in 5.0 mi North 9.2 mph - N/A   Haze
8:40 AM 41.0 °F 35.8 °F 36.0 °F 82% 29.89 in 2.5 mi North 8.1 mph - N/A   Haze
8:54 AM 41.0 °F 35.2 °F 36.0 °F 82% 29.89 in 2.0 mi North 9.2 mph - N/A   Haze
9:15 AM 39.9 °F 33.4 °F 36.0 °F 86% 29.88 in 2.0 mi North 10.4 mph - N/A   Overcast
9:29 AM 41.0 °F 36.4 °F 37.0 °F 86% 29.88 in 4.0 mi North 6.9 mph - N/A   Overcast
9:54 AM 41.0 °F 35.2 °F 36.0 °F 82% 29.87 in 7.0 mi North 9.2 mph - N/A   Overcast
10:54 AM 42.1 °F 35.7 °F 37.0 °F 82% 29.85 in 3.0 mi North 11.5 mph - N/A   Haze
11:54 AM 43.0 °F 37.2 °F 37.0 °F 80% 29.82 in 10.0 mi North 10.4 mph - N/A   Overcast
12:39 PM 44.1 °F 38.1 °F 37.0 °F 76% 29.80 in 10.0 mi North 11.5 mph - N/A   Overcast
12:54 PM 44.1 °F 39.0 °F 37.0 °F 76% 29.80 in 10.0 mi North 9.2 mph - N/A   Overcast
1:54 PM 45.0 °F 40.1 °F 37.0 °F 74% 29.77 in 10.0 mi North 9.2 mph - N/A   Overcast
2:54 PM 45.0 °F 41.2 °F 36.0 °F 71% 29.76 in 10.0 mi North 6.9 mph - N/A   Overcast
3:54 PM 45.0 °F 41.2 °F 37.0 °F 74% 29.75 in 10.0 mi North 6.9 mph - N/A   Overcast
4:54 PM 44.1 °F 40.8 °F 37.0 °F 76% 29.75 in 10.0 mi NNW 5.8 mph - N/A   Overcast
5:41 PM 44.1 °F 41.5 °F 37.9 °F 79% 29.75 in 10.0 mi North 4.6 mph - N/A   Overcast
6:18 PM 43.0 °F 40.3 °F 37.9 °F 82% 29.75 in 10.0 mi North 4.6 mph - N/A   Overcast
6:54 PM 44.1 °F 40.1 °F 37.9 °F 79% 29.76 in 10.0 mi West 6.9 mph - N/A   Overcast
7:02 PM 44.1 °F 40.8 °F 39.0 °F 82% 29.76 in 10.0 mi West 5.8 mph - N/A   Overcast
7:54 PM 44.1 °F 42.5 °F 39.0 °F 82% 29.76 in 9.0 mi WNW 3.5 mph - N/A   Overcast
8:12 PM 44.1 °F 42.5 °F 37.9 °F 79% 29.75 in 10.0 mi NW 3.5 mph - N/A   Overcast
8:54 PM 44.1 °F 42.5 °F 37.9 °F 79% 29.76 in 10.0 mi West 3.5 mph - N/A   Overcast
9:54 PM 44.1 °F - 37.9 °F 79% 29.73 in 10.0 mi Calm Calm - N/A   Overcast
10:54 PM 45.0 °F 42.6 °F 37.0 °F 74% 29.75 in 10.0 mi West 4.6 mph - N/A   Overcast
11:44 PM 45.0 °F 43.5 °F 37.0 °F 74% 29.75 in 10.0 mi West 3.5 mph - N/A   Overcast
11:54 PM 44.1 °F - 37.0 °F 76% 29.74 in 10.0 mi Calm Calm - N/A   Overcast